Regional Weather Roundup
Issued by NWS

Home | Current Version | Previous Version | Text Only | Print | Product List | Glossary On
Versions: 1 2 3 4 5 6 7 8 9 10 11 12 13 14 15 16 17 18 19 20 21 22 23 24 25 26 27 28 29 30 31 32 33 34 35 36 37 38 39 40 41 42 43 44 45 46 47 48 49 50
145
ASUS43 KLMK 102002
RWRKY
KENTUCKY REGIONAL WEATHER ROUNDUP
NATIONAL WEATHER SERVICE LOUISVILLE KY
300 PM EST SAT DEC 10 2016

NOTE "FAIR" INDICATES FEW OR NO CLOUDS BELOW 12,000 FEET
WITH NO SIGNIFICANT WEATHER AND/OR OBSTRUCTIONS TO VISIBILITY.

KYZ001>023-026-027-061>063-070>075-102100-
WESTERN AND SOUTH CENTRAL KENTUCKY

CITY           SKY/WX    TMP DP  RH WIND       PRES   REMARKS
PADUCAH        MOSUNNY   40  13  33 S8        30.46F WCI  34
HENDERSON      MOSUNNY   36  16  44 SE6       30.49F WCI  31
OWENSBORO      MOSUNNY   36  15  42 S7        30.50F WCI  30
HOPKINSVILLE   SUNNY     37  14  39 E7        30.48F WCI  31
BOWLING GREEN  MOSUNNY   35  15  44 CALM      30.51F
GLASGOW        NOT AVBL
$$

KYZ024-025-028>034-038-045-046-053-102100-
NORTH CENTRAL KENTUCKY

CITY           SKY/WX    TMP DP  RH WIND       PRES   REMARKS
LOUISVILLE/SDF CLOUDY    34  14  43 SE3       30.49F
LOUISVILLE/LOU CLOUDY    32  14  47 VRB3      30.50F
FORT KNOX      CLOUDY    32  13  45 CALM      30.46F
$$

KYZ035>037-039>044-047>052-055>060-089>105-102100-
NORTHEAST KENTUCKY

CITY           SKY/WX    TMP DP  RH WIND       PRES   REMARKS
LEXINGTON      SUNNY     31  13  47 VRB3      30.49F
COVINGTON      PTSUNNY   29  16  58 SW7       30.47F WCI  22
FRANKFORT      CLOUDY    32  13  45 W5        30.48F WCI  27
$$

KYZ054-064>069-076>088-106>120-102100-
SOUTHEAST KENTUCKY

CITY           SKY/WX    TMP DP  RH WIND       PRES   REMARKS
JACKSON        SUNNY     30  14  51 CALM      30.47F
LONDON         SUNNY     31  13  47 CALM      30.48F
SOMERSET       SUNNY     32  18  55 CALM      30.50F
MIDDLESBORO    SUNNY     38  16  40 CALM      30.46F
MONTICELLO     CLEAR     33  16  49 N9        30.49F WCI  25
$$





USA.gov is the U.S. government's official web portal to all federal, state and local government web resources and services.